Val DAnniviers, Switzerland 16 day weather forecast

Slopes altitude range 1340 m - 3000m

Number of lifts: 44 Pistes: 220km

In some cases the lift and piste totals shown are for the ski domain (e.g. Three Valleys) rather than individual resort (e.g. Courchevel)

Overview

The 16 day weather forecast is fully updated 4 times every day.

    • Thu 17 JAN 2019
    • Thu 17
    • -11C -7C
    • Fri 18 JAN 2019
    • Fri 18
    • -22C -12C
    • Sat 19 JAN 2019
    • Sat 19
    • -16C -11C
    • Sun 20 JAN 2019
    • Sun 20
    • -18C -12C
    • Mon 21 JAN 2019
    • Mon 21
    • -21C -12C
    • Tue 22 JAN 2019
    • Tue 22
    • -20C -11C
    • Wed 23 JAN 2019
    • Wed 23
    • -19C -15C
    • Thu 24 JAN 2019
    • Thu 24
    • -13C -9C
    • Fri 25 JAN 2019
    • Fri 25
    • -12C -7C
    • Sat 26 JAN 2019
    • Sat 26
    • -17C -8C
    • Sun 27 JAN 2019
    • Sun 27
    • -14C -11C
    • Mon 28 JAN 2019
    • Mon 28
    • -10C -8C
    • Tue 29 JAN 2019
    • Tue 29
    • -15C -8C
    • Wed 30 JAN 2019
    • Wed 30
    • -13C -7C
    • Thu 31 JAN 2019
    • Thu 31
    • -13C -8C
    • Fri 01 FEB 2019
    • Fri 01
    • -15C -9C

Date:

Time Type 0°C level Temp Chill Snow Cloud Speed Gust Dir Press
18:00 1242m -7°C -7_9 1cm 100% 9mph 11mph 1014mB
21:00 962m -13°C -13_11 1cm 100% 11mph 14mph 1015mB
0:00 654m -15°C -15_11 1cm 100% 11mph 13mph 1016mB
3:00 41m -18°C -18_7 1cm 100% 7mph 8mph 1017mB
6:00 0m -22°C -22_6 1cm 85% 6mph 7mph 1018mB
9:00 159m -22°C -22_6 0cm 77% 6mph 6mph 1018mB
12:00 919m -12°C -12_5 0cm 82% 5mph 4mph 1017mB
15:00 689m -12°C -12_3 0cm 96% 3mph 4mph 1017mB
18:00 73m -12°C -12_9 0cm 97% 9mph 10mph 1019mB
21:00 289m -18°C -18_10 0cm 100% 10mph 11mph 1020mB
0:00 509m -18°C -18_9 0cm 100% 9mph 10mph 1020mB
3:00 564m -15°C -15_8 0cm 100% 8mph 9mph 1019mB
6:00 480m -15°C -15_8 1cm 100% 8mph 9mph 1018mB
9:00 688m -16°C -16_8 1cm 92% 8mph 9mph 1018mB
12:00 1052m -11°C -11_5 0cm 81% 5mph 5mph 1016mB
15:00 718m -11°C -11_2 0cm 11% 2mph 3mph 1014mB
18:00 14m -11°C -11_4 0cm 19% 4mph 4mph 1016mB
21:00 165m -19°C -19_3 0cm 95% 3mph 4mph 1016mB
0:00 8m -19°C -19_4 0cm 96% 4mph 4mph 1016mB
3:00 1m -20°C -20_3 0cm 97% 3mph 3mph 1016mB
6:00 7m -20°C -20_2 0cm 98% 2mph 2mph 1016mB
9:00 802m -18°C -18_3 1cm 100% 3mph 3mph 1016mB
12:00 1035m -12°C -12_4 1cm 100% 4mph 4mph 1015mB
15:00 1161m -11°C -11_7 1cm 99% 7mph 8mph 1015mB
18:00 816m -11°C -11_6 1cm 98% 6mph 7mph 1017mB
21:00 136m -18°C -18_2 1cm 95% 2mph 3mph 1019mB
0:00 0m -20°C -20_2 1cm 76% 2mph 3mph 1020mB
3:00 0m -21°C -21_2 0cm 17% 2mph 3mph 1020mB
6:00 0m -21°C -21_2 0cm 15% 2mph 3mph 1021mB
9:00 452m -21°C -21_2 0cm 11% 2mph 3mph 1022mB
12:00 950m -12°C -12_3 0cm 15% 3mph 2mph 1020mB
15:00 808m -11°C -11_5 0cm 51% 5mph 6mph 1020mB
18:00 8m -11°C -11_3 0cm 56% 3mph 4mph 1021mB
21:00 0m -20°C -20_3 0cm 9% 3mph 3mph 1022mB
0:00 0m -20°C -20_3 0cm 5% 3mph 4mph 1020mB
3:00 0m -21°C -21_2 0cm 0% 2mph 3mph 1018mB
6:00 0m -21°C -21_5 0cm 0% 5mph 6mph 1015mB
9:00 587m -20°C -20_7 0cm 0% 7mph 8mph 1012mB
12:00 1189m -11°C -11_6 0cm 0% 6mph 7mph 1007mB
15:00 818m -10°C -10_5 0cm 0% 5mph 6mph 1004mB
18:00 15m -10°C -10_8 0cm 1% 8mph 9mph 1004mB
21:00 0m -19°C -19_6 0cm 3% 6mph 7mph 1004mB
0:00 0m -21°C -21_4 0cm 17% 4mph 4mph 1003mB
3:00 0m -22°C -22_1 0cm 100% 1mph 1mph 1002mB
6:00 0m -22°C -22_2 0cm 100% 2mph 2mph 1001mB
9:00 312m -19°C -19_2 1cm 100% 2mph 2mph 1001mB
12:00 477m -15°C -15_3 1cm 100% 3mph 2mph 999mB
15:00 744m -13°C -13_3 1cm 100% 3mph 3mph 998mB
18:00 462m -13°C -13_5 1cm 99% 5mph 5mph 999mB
21:00 579m -15°C -15_8 1cm 100% 8mph 9mph 999mB
0:00 801m -15°C -15_10 1cm 100% 10mph 12mph 999mB
3:00 865m -13°C -13_10 1cm 100% 10mph 11mph 999mB
6:00 861m -13°C -13_8 1cm 100% 8mph 8mph 1000mB
9:00 1153m -13°C -13_7 1cm 100% 7mph 7mph 1001mB
12:00 1440m -9°C -9_3 1cm 100% 3mph 3mph 1000mB
15:00 1277m -8°C -8_1 1cm 98% 1mph 1mph 1002mB
18:00 796m -8°C -8_4 1cm 97% 4mph 4mph 1005mB
21:00 271m -16°C -16_2 0cm 96% 2mph 2mph 1007mB
0:00 444m -17°C -17_3 0cm 93% 3mph 4mph 1009mB
3:00 509m -11°C -11_3 0cm 93% 3mph 4mph 1010mB
6:00 401m -12°C -12_3 0cm 93% 3mph 3mph 1012mB
9:00 920m -12°C -12_1 1cm 89% 1mph 1mph 1014mB
12:00 1180m -7°C -7_4 1cm 67% 4mph 3mph 1013mB
15:00 1172m -7°C -7_2 1cm 81% 2mph 2mph 1013mB
18:00 491m -7°C -7_6 1cm 67% 6mph 6mph 1016mB
21:00 158m -14°C -14_6 0cm 82% 6mph 6mph 1018mB
0:00 30m -15°C -15_6 0cm 70% 6mph 6mph 1019mB
3:00 0m -16°C -16_7 0cm 13% 7mph 8mph 1019mB
6:00 0m -17°C -17_9 0cm 7% 9mph 9mph 1019mB
9:00 422m -17°C -17_6 0cm 0% 6mph 7mph 1019mB
12:00 982m -8°C -8_4 0cm 0% 4mph 6mph 1017mB
15:00 911m -8°C -8_4 0cm 0% 4mph 5mph 1016mB
18:00 120m -8°C -8_8 0cm 4% 8mph 8mph 1018mB
21:00 110m -14°C -14_6 0cm 92% 6mph 6mph 1017mB
0:00 147m -14°C -14_4 0cm 94% 4mph 5mph 1015mB
3:00 194m -14°C -14_4 0cm 99% 4mph 4mph 1013mB
6:00 171m -14°C -14_4 1cm 99% 4mph 4mph 1011mB
9:00 440m -14°C -14_2 1cm 98% 2mph 3mph 1010mB
12:00 613m -11°C -11_1 1cm 98% 1mph 3mph 1007mB
Morning 0.630208mm 0 563m -9°C -9_3 5cm 99% 3mph 5mph 999mB
Afternoon 0.520833mm 0 638m -8°C -8_5 4cm 100% 5mph 9mph 995mB
Morning 0.21875mm 0.25 4m -15°C -15_9 2cm 94% 9mph 12mph 1000mB
Afternoon 0.109375mm 0 603m -8°C -8_6 1cm 83% 6mph 7mph 994mB
Morning 0.838542mm 0 89m -13°C -13_5 7cm 100% 5mph 9mph 986mB
Afternoon 0.380208mm 0 752m -7°C -7_3 3cm 98% 3mph 3mph 988mB
Morning 0.333333mm 0 379m -10°C -10_10 3cm 97% 10mph 16mph 996mB
Afternoon 0.0572917mm 0 723m -8°C -8_9 0cm 70% 9mph 12mph 1001mB
Morning 0.0677083mm 0 0m -14°C -14_10 1cm 69% 10mph 15mph 1006mB
Afternoon 0.0364583mm 0 524m -9°C -9_6 0cm 88% 6mph 8mph 1004mB
Morning 0.0885417mm 0 0m -15°C -15_5 1cm 90% 5mph 6mph 1006mB
Afternoon 0.0364583mm 0 364m -10°C -10_0 0cm 89% 0mph 1mph 1005mB

16 day outlook at a glance

Forecast issued: 18/01/2019 00:00:37

Chat

Your comments and questions. In a resort? Let us know what it's like!


Characters left 250

For terms and conditions see Readers Comments on the Cookie and privacy policy page.